Location: Goudex
(43.3760°N, 0.9543°E)
Time: 16:56:14
(UTC+00:00)

Lacrosse 5 - Pass Details

Date: 20 November 2019
Orbit: 715 x 724 km, 57.0° (Epoch: 04 December)

Event Time Altitude Azimuth Distance (km) Brightness Sun altitude
Exits shadow 03:48:48 17° 27° (NNE) 1,750 4.1 -33.7°
Drops below altitude 10° 03:50:12 10° 37° (NE) 2,204 4.8 -33.4°
Sets 03:52:46 0° 46° (NE) 3,126 5.8 -32.9°
